Regional Weather Roundup
Issued by NWS

Home | Current Version | Previous Version | Graphics & Text | Print | Product List | Glossary On
Versions: 1 2 3 4 5 6 7 8 9 10 11 12 13 14 15 16 17 18 19 20 21 22 23 24 25 26 27 28 29 30 31 32 33 34 35 36 37 38 39 40 41 42 43 44 45 46 47 48 49 50
000
ASUS45 KTFX 050910
RWRMT
MONTANA REGIONAL WEATHER ROUNDUP
NATIONAL WEATHER SERVICE GREAT FALLS MT
300 AM MDT WED AUG 05 2015

NOTE: "FAIR" INDICATES FEW OR NO CLOUDS BELOW 12000 FEET WITH NO
SIGNIFICANT WEATHER AND/OR OBSTRUCTIONS TO VISIBILITY.

MTZ001>007-043-051000-
WEST OF THE DIVIDE

CITY           SKY/WX    TMP DP  RH WIND       PRES   REMARKS
KALISPELL      SUNNY     50  42  74 N3        29.88S
MISSOULA       CLEAR     58  49  72 CALM      29.94S
BUTTE          CLEAR     51  46  83 CALM      30.08S
MULLAN PASS    CLEAR     58  34  40 VRB7      30.05F
DEER LODGE       N/A     50  43  76 W5        30.06F
EUREKA           N/A     61  43  51 CALM      29.89R
HAMILTON         N/A     57  45  62 SW6       29.95S
LIBBY            N/A     55  37  50 CALM      29.87S
$$

MTZ008-052>055-051000-
SOUTHWEST MONTANA

CITY           SKY/WX    TMP DP  RH WIND       PRES   REMARKS
BOZEMAN        MOCLDY    57  52  83 SW7       30.02F
DILLON         PTCLDY    52  46  80 SE3       30.04F
W YELLOWSTONE  MOCLDY    45  43  93 CALM      30.20S
$$

MTZ009-010-012-014-046-048-049-054-051000-
EAST SLOPES AND CENTRAL MONTANA

CITY           SKY/WX    TMP DP  RH WIND       PRES   REMARKS
CUT BANK       MOCLDY    52  49  89 NW8       29.97S
GREAT FALLS    CLEAR     54  48  80 SW8       29.93S
MALMSTROM AFB  CLEAR     58  50  77 S1        29.92F
HELENA         CLEAR     60  44  55 SW3       29.99S
CONRAD           N/A     55  54  97 W9        29.98S
$$

MTZ011-013-016-021-045-047-050-051-051000-
NORTH CENTRAL MONTANA

CITY           SKY/WX    TMP DP  RH WIND       PRES   REMARKS
HAVRE          CLEAR     58  51  78 W3        29.88R
LEWISTOWN      PTCLDY    53  46  77 S8        29.98F
CHINOOK          N/A     57  55  94 N3        29.87R
FORT BENTON      N/A     61  54  77 CALM      29.91R
$$

MTZ017>020-022>027-061-062-051000-
NORTHEAST MONTANA

CITY           SKY/WX    TMP DP  RH WIND       PRES   REMARKS
GLASGOW        CLEAR     63  60  90 SE8       29.89F
JORDAN           N/A     59  57  93 CALM      29.91F
SIDNEY         CLOUDY   N/A N/A N/A NE3       29.88F
WOLF POINT     MOCLDY    65  63  93 E3        29.88F
MALTA            N/A     60  51  72 CALM      29.86F
PLENTYWOOD       N/A     64  64 100 CALM      29.90F
POPLAR           N/A     64  64 100 N3        29.88S
$$

MTZ028>42-056>058-051000-
SOUTHCENTRAL AND SOUTHEAST MONTANA

CITY           SKY/WX    TMP DP  RH WIND       PRES   REMARKS
BAKER          MOCLDY    62  59  90 S9        29.97S
BILLINGS       PTCLDY    62  53  72 SW9       29.98F
LIVINGSTON     MOCLDY    57  50  77 SW5       30.03S
MILES CITY     CLEAR     60  59  96 SE7       29.93F
EKALAKA          N/A     60  55  83 SE7       29.97F
FORSYTH          N/A     59  57  94 CALM      29.92F
LAUREL           N/A     58  52  80 CALM      29.97F
$$

REGIONAL REPORTS...DAKOTAS

CITY           SKY/WX    TMP DP  RH WIND       PRES   REMARKS
WILLISTON      LGT RAIN  70  61  73 NE3       29.90F
MINOT          CLOUDY    63  55  75 SE6       29.94F
DICKINSON      CLOUDY    62  59  90 SE9       29.93F
CROSBY         FAIR      66  64  94 NW8       29.91S
BISMARCK       CLOUDY    64  57  78 E9        29.98F
GRAND FORKS    PTCLDY    55  52  89 CALM      30.03F
FARGO          CLEAR     58  52  80 SE5       30.03S
BUFFALO SD       N/A     62  60  93 CALM      29.93R
RAPID CITY     CLOUDY    66  59  78 CALM      29.99F
$$

REGIONAL REPORTS...WYOMING/IDAHO/WASHINGTON

CITY           SKY/WX    TMP DP  RH WIND       PRES   REMARKS
GILLETTE       PTCLDY    61  55  81 SW5       30.03F
SHERIDAN       CLEAR     57  52  83 CALM      30.03R
BUFFALO WY     CLEAR     60  47  61 W9        30.08S
CODY           PTCLDY    57  46  67 S5        30.09S
YELLOWSTONE LA   N/A     41  40  96 NW3       30.30S
IDAHO FALLS    MOCLDY    65  45  48 NW12      30.00F
SALMON         PTCLDY    54  45  71 CALM      29.97R
BOISE          LGT RAIN  70  60  70 E12       29.93F
SPOKANE        CLOUDY    67  40  37 SE9       29.84F
$$

REGIONAL REPORTS...ALBERTA

CITY           SKY/WX    TMP DP  RH WIND       PRES   REMARKS
EDMONTON       CLOUDY    55  54  94 NE3       29.90S
CALGARY        MOCLDY    55  50  82 VRB2      29.94F
LETHBRIDGE     CLOUDY    57  52  82 W7        29.95F
MEDICINE HAT   CLEAR     59  55  88 W6        29.89R
WATERTON GATE    N/A     45  43  93 SW2         N/A
MILK RIVER       N/A     55  54  94 NW12        N/A
ONEFOUR          N/A     59  54  82 NE10        N/A
$$

REGIONAL REPORTS...SASKATCHEWAN

CITY           SKY/WX    TMP DP  RH WIND       PRES   REMARKS
SWIFT CURRENT  CLEAR     61  55  82 S6        29.87S
SASKATOON      MOCLDY    64  61  88 SW10      29.78S
CYPRESS HILLS    N/A     55  54  94 NE8         N/A
VAL MARIE        N/A     61  57  88 S5          N/A
ROCKGLEN         N/A     61  59  94 W2          N/A
ASSINIBOIA       N/A     57  57 100 NW8         N/A
$$


USA.gov is the U.S. government's official web portal to all federal, state and local government web resources and services.